Location: Newark
(35.2672°N, 80.7344°W)
Time: 21:00:29
(UTC+00:00)

A-11 Canister half - Pass Details

Date: 31 January 2020
Orbit: 1524 x 1684 km, 47.3° (Epoch: 26 February)

Event Time Altitude Azimuth Distance (km) Brightness Sun altitude
Rises 02:35:42 0° 302° (WNW) 4,719 12.2 -46.3°
Reaches altitude 10° 02:38:47 10° 306° (NW) 3,752 11.5 -46.9°
Enters shadow 02:43:56 36° 321° (NW) 2,313 10.0 -48.0°
